This demonstration page uses our WeatherBlox Daily Observations layout. Learn more.

Left ArrowRight Arrow

38.20091, -84.87328

Hourly Observations for July 11, 2015

Temp ( °F °C ) Dew Point ( °F °C ) Humidity (%) Winds ( mph kmh ) Pressure ( in mb ) Visibility ( mi km ) Precip ( " mm )
12:30 am 00:30 Cloudy with Mist and Fog 69 20.6 66 18.9 90 90 N 5 7 30.09 1019 6 10 0.00 0.00
12:53 am 00:53 Cloudy 69 20.6 66 18.9 90 90 N 3 6 30.12 1020 7 11 0.00 0.00
1:06 am 01:06 Cloudy 69 20.6 66 18.9 90 90 NNE 3 6 30.09 1019 7 11 0.00 0.00
1:53 am 01:53 Cloudy 68 20 65 18.3 90 90 N 3 6 30.10 1019 10 16 0.00 0.00
2:53 am 02:53 Cloudy 68 20 65 18.3 90 90 Calm 30.10 1019 10 16 0.00 0.00
3:53 am 03:53 Cloudy 67 19.4 64 17.8 91 91 Calm 30.11 1020 9 14 0.00 0.00
4:34 am 04:34 Cloudy 67 19.4 64 17.8 91 91 Calm 30.15 1021 8 13 0.00 0.00
4:53 am 04:53 Cloudy with Mist and Fog 66 18.9 64 17.8 93 93 Calm 30.12 1020 6 10 0.00 0.00
5:53 am 05:53 Cloudy with Mist and Fog 66 18.9 63 17.2 90 90 N 3 6 30.13 1020 6 10 0.00 0.00
6:53 am 06:53 Cloudy with Mist and Fog 66 18.9 64 17.8 93 93 Calm 30.16 1021 3 5 0.00 0.00
7:53 am 07:53 Cloudy with Mist and Fog 67 19.4 64 17.8 91 91 Calm 30.16 1021 4 6 0.00 0.00
8:04 am 08:04 Cloudy with Mist and Fog 67 19.4 64 17.8 91 91 Calm 30.18 1022 4 6 0.00 0.00
8:27 am 08:27 Cloudy with Mist and Fog 67 19.4 64 17.8 91 91 Calm 30.18 1022 4 6 0.00 0.00
8:53 am 08:53 Cloudy with Mist and Fog 68 20 64 17.8 87 87 N 5 7 30.17 1022 5 8 0.00 0.00
9:04 am 09:04 Cloudy with Mist and Fog 68 20 64 17.8 87 87 N 3 6 30.21 1023 6 10 0.00 0.00
9:30 am 09:30 Cloudy with Haze 69 20.6 64 17.8 84 84 E 5 7 30.21 1023 6 10 0.00 0.00
9:53 am 09:53 Cloudy with Haze 70 21.1 64 17.8 82 82 Calm 30.17 1022 6 10 0.00 0.00
10:28 am 10:28 Cloudy 71 21.7 65 18.3 81 81 Calm 30.18 1022 7 11 0.00 0.00
10:51 am 10:51 Mostly Cloudy 72 22 64 18 78 78 Calm 30.18 1022 8 13 0.00 0.00
10:53 am 10:53 Mostly Cloudy 72 22.2 65 18.3 79 79 Calm 30.19 1022 8 13 0.00 0.00
11:01 am 11:01 Mostly Cloudy 73 22.8 65 18.3 76 76 NW 3 6 30.18 1022 8 13 0.00 0.00
11:08 am 11:08 Partly Cloudy 73 22.8 64 17.8 74 74 VRB 3 6 30.15 1021 8 13 0.00 0.00
11:53 am 11:53 Mostly Sunny 76 24.4 63 17.2 64 64 Calm 30.18 1022 10 16 0.00 0.00
12:53 pm 12:53 Mostly Sunny 76 24.4 62 16.7 62 62 Calm 30.17 1022 10 16 0.00 0.00
1:53 pm 13:53 Mostly Cloudy 79 26.1 64 17.8 60 60 VRB 3 6 30.17 1022 10 16 0.00 0.00
2:53 pm 14:53 Mostly Sunny 79 26.1 63 17.2 58 58 VRB 5 7 30.16 1021 10 16 0.00 0.00
3:53 pm 15:53 Sunny 79 26.1 64 17.8 60 60 W 5 7 30.14 1021 10 16 0.00 0.00
4:53 pm 16:53 Sunny 79 26.1 64 17.8 60 60 WSW 3 6 30.12 1020 10 16 0.00 0.00
5:53 pm 17:53 Sunny 80 26.7 64 17.8 58 58 Calm 30.11 1020 10 16 0.00 0.00
6:53 pm 18:53 Sunny 80 26.7 62 16.7 54 54 Calm 30.11 1020 10 16 0.00 0.00
7:53 pm 19:53 Sunny 80 26.7 63 17.2 56 56 Calm 30.10 1019 10 16 0.00 0.00
8:53 pm 20:53 Sunny 76 24.4 66 18.9 72 72 ESE 3 6 30.09 1019 10 16 0.00 0.00
9:53 pm 21:53 Clear 74 23.3 66 18.9 76 76 Calm 30.09 1019 10 16 0.00 0.00
10:53 pm 22:53 Clear 73 22.8 66 18.9 79 79 SE 3 6 30.09 1019 10 16 0.00 0.00
11:53 pm 23:53 Mostly Clear 72 22.2 66 18.9 82 82 SE 6 9 30.08 1019 10 16 0.00 0.00

Powered by AerisWeather